Regional Weather Roundup
Issued by NWS

Home | Current Version | Previous Version | Graphics & Text | Print | Product List | Glossary On
Versions: 1 2 3 4 5 6 7 8 9 10 11 12 13 14 15 16 17 18 19 20 21 22 23 24 25 26 27 28 29 30 31 32 33 34 35 36 37 38 39 40 41 42 43 44 45 46 47 48 49 50
010
ASUS43 KMPX 092310
RWRMN
WEATHER ROUNDUP FOR MINNESOTA
NATIONAL WEATHER SERVICE TWIN CITIES/CHANHASSEN MN
500 PM CST FRI DEC 09 2016


NOTE: "FAIR" INDICATES FEW OR NO CLOUDS BELOW 12,000 FEET WITH NO
SIGNIFICANT WEATHER AND/OR OBSTRUCTIONS TO VISIBILITY. N/A MEANS
CURRENT SKY AND/OR WEATHER CONDITIONS ARE NOT AVAILABLE.

MNZ060>063-068>070-100000-
   Twin Cities Metro

CITY           SKY/WX    TMP DP  RH WIND       PRES   REMARKS
TWIN CITIES    MOCLDY    16   6  65 W8        30.50S WCI   5
ST PAUL        PTCLDY    16   8  71 W9        30.52S WCI   4
CRYSTAL        MOCLDY    15   4  61 NW8       30.49S WCI   4
BLAINE         MOCLDY    16   7  67 W9        30.49S WCI   4
LAKEVILLE      PTCLDY    10   7  85 W3        30.49F
EDEN PRAIRIE   CLEAR     15   5  64 W8        30.49S WCI   4
SOUTH ST PAUL  PTCLDY    17   7  65 W6        30.50S WCI   8
LAKE ELMO      CLOUDY    19  10  68 W6        30.49F WCI  11
$$
MNZ001>005-007-008-013>017-022>024-027-028-100000-
   Northwest Minnesota

CITY           SKY/WX    TMP DP  RH WIND       PRES   REMARKS
BEMIDJI        CLOUDY     4  -4  68 W8        30.45F WCI  -9
HALLOCK        CLOUDY     0  -6  78 NW6       30.55S WCI -12
ROSEAU         CLOUDY     1  -6  71 W6        30.50F WCI -10
WARROAD        FLURRIES   1  -6  71 W5        30.49F WCI  -8
THIEF RVR FALL CLOUDY     0  -4  83 W9        30.52S WCI -15
CROOKSTON      PTCLDY    -2  -8  78 NW6       30.57S WCI -14
FOSSTON        CLOUDY     1  -4  78 NW8       30.50S WCI -12
DETROIT LAKES  PTCLDY     1  -4  78 NW6       30.50R WCI -10
MOORHEAD       CLEAR      1  -2  85 N7        30.56S WCI -11
PARK RAPIDS    CLOUDY     6  -5  60 NW9       30.45S WCI  -8
$$
MNZ006-009>011-018-025>026-100000-
   North Central Minnesota

CITY           SKY/WX    TMP DP  RH WIND       PRES   REMARKS
BAUDETTE       CLEAR     -1  -9  68 W8        30.46S WCI -15
FLAG ISLAND    CLOUDY     3  -2  78 W10       30.46F WCI -12
INTL FALLS     MOCLDY     3  -5  69 W5        30.44F WCI  -6
WASKISH        CLOUDY     5  -2  72 NW10G16   30.46S WCI -10
BIG FORK       LGT SNOW   7   1  78 CALM      30.43F
LONGVILLE      CLOUDY     7   0  72 NW6       30.45S WCI  -3
GRAND RAPIDS   FLURRIES   7  -1  70 NW8       30.45F WCI  -6
CRANE LAKE     CLOUDY     3  -4  72 CALM      30.47S
ORR            CLOUDY     3  -6  66 CALM      30.40S
COOK           CLOUDY     3  -2  78 W5        30.43S WCI  -6
$$
MNZ012-019>021-037-100000-
   Northeast Minnesota

CITY           SKY/WX    TMP DP  RH WIND       PRES   REMARKS
DULUTH         CLOUDY     8   1  73 NW7       30.41F WCI  -3
ELY            CLOUDY     3  -2  78 W6        30.40S WCI  -8
HIBBING        CLOUDY     4  -3  73 NW5       30.42F WCI  -5
EVELETH        CLOUDY     6  -4  62 NW9       30.43F WCI  -7
DULUTH HARBOR  CLOUDY    12   0  57 NW13      30.49F WCI  -3
TWO HARBORS    CLEAR      9   0  66 CALM      30.42F
SILVER BAY     PTCLDY     7   0  72 NW3       30.42S
GRAND MARAIS     N/A     15   5  64 VRB7      30.43R WCI   5
G MARAIS ARPRT CLOUDY     7   0  72 W5        30.32S WCI  -2
$$
MNZ029>031-032-039>041-046>048-054>057-064-100000-
   West Central Minnesota

CITY           SKY/WX    TMP DP  RH WIND       PRES   REMARKS
FERGUS FALLS   MOCLDY     1  -4  78 N6        30.58R WCI -10
WHEATON        MOCLDY     7   1  78 NW6       30.57S WCI  -3
MORRIS         MOCLDY     5  -2  72 NW6       30.52S WCI  -6
ALEXANDRIA     CLEAR      3  -3  76 W7        30.48F WCI  -9
ELBOW LAKE     MOCLDY     4   0  83 W6        30.52R WCI  -7
WADENA         CLOUDY     3  -2  78 NW9       30.47S WCI -11
GLENWOOD       PTCLDY     3  -2  78 W8        30.49S WCI -10
APPLETON       CLOUDY     9   0  66 NW7       30.55R WCI  -3
BENSON         FLURRIES   7   0  72 N7        30.53S WCI  -5
ORTONVILLE     CLOUDY     7   0  72 CALM      30.54R HAZE
MADISON        CLOUDY    10   3  72 NW10      30.55R WCI  -3
WILLMAR        FAIR       9   3  78 CALM      30.52S
$$
MNZ033>034-036-042>043-049>051-058-059-100000-
   Central Minnesota

CITY           SKY/WX    TMP DP  RH WIND       PRES   REMARKS
ST CLOUD       PTCLDY    10   3  73 W8        30.49S WCI  -2
PAYNESVILLE    MOCLDY     8   1  76 NW8       30.50S WCI  -5
AITKIN         MIX PCPN  12   0  57 CALM      30.44S
PINE RIVER     CLOUDY     9   1  72 W6        30.47F WCI  -1
BRAINERD       CLOUDY    10   0  63 NW7       30.46S WCI  -1
STAPLES        CLOUDY     7   0  72 W8        30.47S WCI  -6
LONG PRAIRIE   CLOUDY     5   0  78 SW5       30.48S WCI  -4
LITTLE FALLS   CLOUDY    10   1  67 NW6         N/A  WCI   1
LITCHFIELD     CLEAR     10   3  72 W8        30.50S WCI  -1
BUFFALO        PTCLDY    12   5  71 W7        30.51S WCI   2
MAPLE LAKE     CLEAR     12   6  76 W5        30.50F WCI   4
HUTCHINSON     MOCLDY    11   6  79 W10       30.51S WCI  -2
$$
MNZ037-044-045-052-053-100000-
   East Central Minnesota

CITY           SKY/WX    TMP DP  RH WIND       PRES   REMARKS
PRINCETON      CLOUDY    14   7  73 NW5       30.48S WCI   6
MORA           MOCLDY    14   5  67 NW8       30.49S WCI   3
CAMBRIDGE      FLURRIES  16   5  62 W7        30.46F WCI   6
RUSH CITY      CLOUDY    14   5  67 W6        30.48S WCI   5
MOOSE LAKE     CLOUDY    12   3  67 NW6       30.45R WCI   3
HINCKLEY       CLOUDY    14   7  73 W10       30.47R WCI   1
CLOQUET        CLOUDY     9   0  66 W6        30.43S WCI  -1
MCGREGOR       CLOUDY    10   3  72 NW5       30.46S WCI   2
$$
MNZ071>073-080-081-089-090-097-098-100000-
   Southwest Minnesota

CITY           SKY/WX    TMP DP  RH WIND       PRES   REMARKS
MONTEVIDEO     MOCLDY     9   1  72 N8        30.55S WCI  -4
GRANITE FALLS  CLOUDY    11   4  74 W8        30.55S WCI  -1
CANBY          CLOUDY    10   2  72 CALM      30.54S
MARSHALL       FLURRIES  10   2  69 N10       30.53R WCI  -4
REDWOOD FALLS  CLOUDY    11   2  67 NW6       30.53R WCI   1
OLIVIA         CLEAR     10   5  79 NW6       30.52R WCI   1
PIPESTONE      CLOUDY    12   7  79 CALM      30.46S
WINDOM         CLOUDY    14   9  79 CALM      30.48F
WORTHINGTON    LGT SNOW  14   8  77 W6        30.48S WCI   5
JACKSON        LGT SNOW  14   9  79 W5        30.48F WCI   6
TRACY          FLURRIES  13   7  78 NW5       30.50S WCI   5
SLAYTON        CLOUDY    13   7  79 W6        30.47S WCI   3
$$
MNZ065>067-074>077-082>085-091>093-100000-
   South Central Minnesota

CITY           SKY/WX    TMP DP  RH WIND       PRES   REMARKS
MANKATO        FLURRIES  13   8  81 NW8       30.51S WCI   2
NEW ULM        FLURRIES  12   7  79 W8        30.53R WCI   1
ST JAMES       LGT SNOW  12   9  85 NW6       30.52F WCI   3
FAIRMONT       FLURRIES  16   9  74 W6        30.50F WCI   7
GLENCOE        MOCLDY    12   8  81 W8        30.50S WCI   1
FARIBAULT      CLOUDY    16  10  79 W7        30.50S WCI   6
OWATONNA       FLURRIES  16   9  73 W8        30.48F WCI   5
WASECA         CLOUDY    18  12  79 SW9       30.51R WCI   6
ALBERT LEA     PTCLDY    19  12  73 W5        30.48F WCI  13
$$
MNZ078>079-086>088-094>096-100000-
   Southeast Minnesota

CITY           SKY/WX    TMP DP  RH WIND       PRES   REMARKS
ROCHESTER      CLOUDY    13   9  84 W7        30.47F WCI   3
RED WING       MOCLDY    18   9  68 NW5       30.49F WCI  11
STANTON        MOCLDY    16  10  74 W6        30.49F WCI   8
DODGE CENTER   PTCLDY    16  10  79 W8        30.46F WCI   5
WINONA         MOCLDY    19  12  73 W3        30.52S
AUSTIN         CLEAR     16   9  73 W7        30.48F WCI   6
PRESTON        CLEAR     12   8  82 W6        30.47F WCI   3
$$
ABBREVIATIONS USED IN REMARKS
   TC - TEMPERATURES IN CELSIUS
  WCI - WIND CHILL INDEX
   HX - HEAT INDEX
  VSB - VISIBILITY
$$




USA.gov is the U.S. government's official web portal to all federal, state and local government web resources and services.